Scottsbluff, NE

5:25 PM MST on November 18, 2019 (GMT -0700)
Heilig

Weather History for KBFF - September, 2019

Change the Weather History Date:

Monday, September 2, 2019

  Actual Average Record
Temperature  
Mean Temperature 81 °F -  
Max Temperature 98 °F 85 °F 98 °F (1983)
Min Temperature 64 °F 52 °F 35 °F (1952)
Cooling Degree Days 16    
Growing Degree Days 31 (Base 50)    
Moisture  
Dew Point 61 °F    
Average Humidity 77    
Maximum Humidity 100    
Minimum Humidity 14    
Precipitation  
Precipitation 0.00 in - - ()
Sea Level Pressure  
Sea Level Pressure 29.92 in    
Wind  
Wind Speed 5 mph (ESE)    
Max Wind Speed 10 mph    
Max Gust Speed -    
Visibility 6 miles    
Events Fog    
Averages and records for this station are not official NWS values.
T = Trace of Precipitation, MM = Missing Value Source: NWS Daily Summary

Daily Weather History Graph

Daily Weather History Graph

Search for Another Location

Airport or City:

Astronomy

Sep. 02, 2019 Rise Set
Actual Time 6:21 AM MDT 7:26 PM MDT
Civil Twilight 5:52 AM MDT 7:54 PM MDT
Nautical Twilight 5:18 AM MDT 8:29 PM MDT
Astronomical Twilight 4:42 AM MDT 9:04 PM MDT
Moon 10:09 AM MDT (9/2) 9:45 PM MDT (9/2)
Length of Visible Light 14h 02m
Length of Day
13h 05m
Waxing Crescent, 16% of the Moon is Illuminated
Sep 2
Waxing Crescent
Sep 5
First Quarter
Sep 13
Full
Sep 21
Last Quarter
Sep 28
New

Hourly Weather History & Observations

Time (MDT) Temp. Heat Index Dew Point Humidity Pressure Visibility Wind Dir Wind Speed Gust Speed Precip Events Conditions
12:53 AM 66.9 °F - 64.9 °F 93% 29.89 in 10.0 mi ESE 8.1 mph - N/A   Clear
1:53 AM 63.0 °F - 63.0 °F 100% 29.89 in 6.0 mi SW 4.6 mph - N/A   Clear
2:31 AM 62.1 °F - 61.0 °F 96% 30.03 in 1.8 mi NNW 3.5 mph - N/A   Partly Cloudy
2:36 AM 62.1 °F - 61.0 °F 96% 30.04 in 0.8 mi Calm Calm - N/A   Mist
2:45 AM 63.0 °F - 62.1 °F 97% 30.04 in 1.0 mi North 4.6 mph - N/A   Mist
2:53 AM 63.0 °F - 62.1 °F 97% 29.88 in 2.5 mi North 3.5 mph - N/A   Mostly Cloudy
3:00 AM 64.0 °F - 63.0 °F 96% 30.03 in 4.0 mi North 5.8 mph - N/A   Mostly Cloudy
3:30 AM 66.0 °F - 66.0 °F 100% 30.03 in 1.8 mi Calm Calm - N/A   Overcast
3:46 AM 66.9 °F - 66.9 °F 100% 30.03 in 0.2 mi Calm Calm - N/A Fog Fog
3:53 AM 66.9 °F - 66.9 °F 100% 29.87 in 0.2 mi Calm Calm - N/A Fog Fog
4:53 AM 66.0 °F - 64.9 °F 96% 29.86 in 0.2 mi East 3.5 mph - N/A Fog Fog
5:53 AM 64.9 °F - 64.9 °F 100% 29.87 in 0.2 mi Calm Calm - N/A Fog Fog
6:26 AM 64.9 °F - 64.9 °F 100% 30.04 in 0.2 mi NNE 3.5 mph - N/A Fog Fog
6:53 AM 64.9 °F - 64.9 °F 100% 29.91 in 0.2 mi ENE 6.9 mph - N/A Fog Fog
7:18 AM 64.9 °F - 64.9 °F 100% 30.06 in 1.0 mi East 8.1 mph - N/A   Overcast
7:32 AM 64.0 °F - 64.0 °F 100% 30.05 in 0.2 mi East 10.4 mph - N/A Fog Fog
7:53 AM 64.0 °F - 64.0 °F 100% 29.94 in 0.2 mi East 5.8 mph - N/A Fog Fog
8:53 AM 64.0 °F - 64.0 °F 100% 29.95 in 0.5 mi SSE 6.9 mph - N/A Fog Fog
9:40 AM 66.0 °F - 64.9 °F 96% 30.06 in 1.2 mi SSE 6.9 mph - N/A   Overcast
9:53 AM 64.9 °F - 64.9 °F 100% 29.95 in 1.5 mi SSE 6.9 mph - N/A   Overcast
10:13 AM 66.0 °F - 64.9 °F 96% 30.06 in 2.0 mi SE 5.8 mph - N/A   Overcast
10:35 AM 66.0 °F - 66.0 °F 100% 30.06 in 4.0 mi SE 3.5 mph - N/A   Overcast
10:53 AM 70.0 °F - 66.0 °F 87% 29.94 in 7.0 mi SE 4.6 mph - N/A   Overcast
11:08 AM 71.1 °F - 66.0 °F 84% 30.05 in 9.0 mi Variable 3.5 mph - N/A   Overcast
11:30 AM 72.0 °F - 66.0 °F 81% 30.05 in 10.0 mi Calm Calm - N/A   Scattered Clouds
11:53 AM 77.0 °F - 66.0 °F 69% 29.91 in 10.0 mi Calm Calm - N/A   Clear
12:53 PM 86.0 °F 86.1 °F 61.0 °F 43% 29.87 in 10.0 mi West 5.8 mph - N/A   Clear
1:53 PM 90.0 °F 88.8 °F 57.9 °F 34% 29.85 in 10.0 mi WSW 4.6 mph - N/A   Clear
2:53 PM 95.0 °F 93.4 °F 55.9 °F 27% 29.81 in 10.0 mi NNW 3.5 mph - N/A   Clear
3:53 PM 97.0 °F 94.6 °F 53.1 °F 23% 29.78 in 10.0 mi West 4.6 mph - N/A   Clear
4:53 PM 98.1 °F - 48.0 °F 18% 29.77 in 10.0 mi West 6.9 mph - N/A   Clear
5:53 PM 96.1 °F - 52.0 °F 22% 29.77 in 10.0 mi South 5.8 mph - N/A   Clear
6:53 PM 90.0 °F 88.1 °F 55.9 °F 31% 29.77 in 10.0 mi SSE 3.5 mph - N/A   Clear
7:53 PM 75.9 °F - 60.1 °F 58% 29.79 in 10.0 mi SE 4.6 mph - N/A   Clear
8:53 PM 70.0 °F - 57.0 °F 63% 29.82 in 10.0 mi East 3.5 mph - N/A   Clear
9:53 PM 66.9 °F - 55.9 °F 68% 29.83 in 10.0 mi East 5.8 mph - N/A   Clear
10:53 PM 64.9 °F - 55.0 °F 70% 29.83 in 10.0 mi ENE 6.9 mph - N/A   Clear
11:53 PM 64.9 °F - 54.0 °F 68% 29.83 in 10.0 mi NW 6.9 mph - N/A   Clear